Temp
60 60 60 60 49 43 38 46 50 53 56 62 65 62 59 59 59 51 68 69 71 71 72 72 73 74 74 74 74 74 74 75 75 74 74 74 75 75 75 75 75 76 77 77 77 76 76 75 74
61 64 60 52 42 36 41 49 50 54 59 62 64 63 59 59 66 64 66 70 73 72 71 71 73 73 74 74 74 74 75 75 75 74 74 74 74 74 74 74 75 76 76 77 77 77 75 74 73
64 65 55 46 37 39 41 51 54 57 60 61 60 62 60 60 66 66 70 72 73 71 71 71 72 73 73 73 74 74 74 74 74 74 75 75 75 75 74 74 75 76 76 77 77 76 74 72 71
62 59 53 44 40 46 50 53 54 57 61 62 58 56 64 67 68 68 70 71 70 70 69 70 71 72 73 73 73 73 73 73 73 74 74 75 75 75 74 74 75 76 76 76 75 75 73 70 71
57 52 43 38 42 50 55 56 56 55 56 58 59 57 59 65 68 69 67 69 67 67 67 71 70 72 72 73 73 72 72 72 73 73 74 74 74 74 73 73 73 74 74 74 74 73 72 71 71
52 49 40 37 44 54 57 55 57 57 57 59 58 58 59 67 66 65 65 63 64 63 64 67 71 71 71 71 71 71 71 71 72 72 73 73 72 72 72 72 72 72 72 72 72 71 71 71 70
49 44 38 41 48 51 56 58 57 56 57 56 58 56 60 63 64 64 63 63 63 63 63 63 64 65 68 69 69 69 70 70 71 71 71 71 71 71 72 71 72 72 71 71 71 71 71 70 69
51 48 39 43 47 47 58 58 59 58 55 62 61 55 57 62 64 63 62 62 62 62 63 62 62 62 63 65 68 69 69 69 70 70 69 69 70 70 70 70 71 71 71 71 71 70 70 69 68
52 44 39 44 47 52 57 55 57 60 57 59 61 60 63 63 64 61 59 60 61 61 61 62 61 61 62 65 68 69 70 69 69 69 69 66 65 65 66 69 70 70 69 69 69 68 67 67 67
51 42 46 53 54 54 55 56 58 57 55 57 59 62 63 63 62 60 57 57 58 59 60 61 60 60 62 67 65 65 67 65 65 65 65 65 64 64 65 67 68 68 68 67 67 66 65 63 58
49 48 53 57 59 59 56 57 60 56 53 57 57 59 61 62 61 60 59 59 58 59 60 61 60 61 62 64 63 62 63 63 64 64 64 63 63 62 61 60 60 59 63 61 61 60 59 58 57
51 58 58 60 58 58 59 60 59 57 57 62 61 61 62 61 60 61 59 59 58 59 60 61 62 63 63 62 62 62 62 62 62 63 64 61 60 59 58 57 56 57 57 56 56 55 56 56 56
53 58 60 61 59 59 62 58 56 53 59 63 62 61 61 60 60 62 62 61 62 61 62 62 61 62 62 61 60 60 61 62 62 62 62 60 58 57 57 56 56 56 56 55 54 54 54 54 55
59 60 57 58 60 62 59 57 56 56 58 58 60 58 59 60 60 60 61 60 60 62 61 60 60 62 62 60 59 60 61 62 61 61 60 60 58 55 55 55 55 54 54 53 53 53 52 52 53
59 56 57 56 59 60 62 53 51 58 58 57 57 58 58 60 60 60 61 59 59 60 60 60 61 62 61 60 60 60 61 62 60 60 60 58 56 55 55 54 53 53 53 53 52 52 51 51 52
56 56 51 56 59 60 55 47 53 58 56 58 58 58 58 58 59 58 60 61 61 60 60 61 65 61 60 59 59 59 60 59 58 58 58 58 57 56 54 53 52 52 52 52 51 51 49 48 48
49 45 48 52 60 58 57 49 54 57 57 55 56 56 57 57 59 59 60 60 61 62 61 60 61 59 59 58 58 58 58 57 56 56 56 57 57 56 53 52 51 52 51 50 51 49 49 47 46
42 44 41 48 54 54 53 49 53 56 57 55 54 56 56 57 59 62 61 61 61 61 60 61 60 59 58 57 55 54 55 55 55 55 55 56 55 55 53 51 51 51 49 49 48 47 45 45 45
50 47 46 51 58 55 51 49 51 53 53 53 53 54 56 58 62 62 62 61 60 59 59 59 58 57 59 56 53 53 53 53 53 54 55 55 54 53 51 50 49 49 48 47 47 45 45 43 42
52 48 46 52 56 52 47 47 49 52 55 55 56 55 57 58 58 60 60 59 60 59 60 59 59 58 60 60 55 55 53 51 52 52 52 53 52 52 51 48 47 47 46 45 45 45 42 41 41
51 48 48 49 51 50 49 45 49 54 55 56 56 58 59 58 58 60 60 59 60 59 60 60 60 60 60 58 54 52 52 52 51 49 49 50 51 50 49 47 46 45 45 44 43 43 44 41 42
49 56 51 50 46 40 46 37 45 50 52 54 56 55 58 59 60 61 61 59 58 59 61 61 61 60 59 57 56 57 54 52 50 49 48 47 49 48 48 47 46 45 44 43 45 45 43 42 40
53 55 50 50 45 44 42 40 44 46 50 55 56 58 58 60 60 60 61 62 61 60 60 60 60 60 60 59 58 55 50 49 48 47 46 46 46 47 47 46 46 44 44 45 45 45 42 42 39
57 54 50 46 43 34 41 40 41 43 54 59 59 58 61 58 58 60 61 61 60 58 58 58 58 59 58 58 56 55 52 49 47 45 44 44 44 44 45 46 44 44 45 46 46 45 42 41 40
53 47 37 35 32 32 44 40 45 53 54 56 57 59 60 62 56 56 57 59 59 57 59 59 58 58 57 57 55 54 53 53 51 48 46 44 43 43 43 44 45 45 47 45 46 44 41 40 39
48 47 35 31 28 36 42 38 48 55 55 58 58 57 57 58 59 58 60 60 60 59 59 60 59 59 58 58 56 55 54 54 53 51 49 47 48 45 44 47 49 47 48 47 45 43 41 40 39
48 42 47 36 33 32 36 44 53 53 54 52 52 53 53 52 54 57 59 60 59 59 60 60 60 60 56 56 53 52 52 51 50 51 50 47 47 48 48 48 48 47 47 46 44 43 42 40 38
51 52 41 37 32 30 34 35 41 51 53 53 52 52 53 51 52 54 56 58 59 60 61 59 60 59 55 53 52 51 51 51 49 49 47 48 48 48 48 47 47 46 45 45 44 42 40 38 37
48 45 42 42 35 31 27 35 47 51 53 53 53 53 53 53 52 53 55 56 58 58 57 57 56 54 51 50 50 49 49 49 49 49 48 49 49 49 48 47 46 46 45 45 43 41 39 38 38
50 48 45 34 36 30 28 34 51 52 53 52 55 56 52 53 53 53 54 55 55 56 54 53 51 51 51 50 49 49 47 48 48 48 49 48 49 48 48 47 46 46 45 44 42 40 40 38 37
MSLP
1012.48 1012.56 1012.62 1013.23 1014.99 1015.89 1015.26 1013.87 1012.60 1011.83 1011.17 1010.82 1010.56 1010.93 1011.67 1011.79 1012.29 1013.30 1012.85 1012.78 1012.92 1013.66 1013.98 1014.54 1014.87 1015.16 1015.47 1015.97 1016.27 1016.16 1016.42 1017.27 1017.80 1018.04 1018.55 1018.88 1019.01 1019.33 1019.34 1019.19 1019.56 1019.75 1019.86 1019.82 1019.86 1019.93 1019.97 1020.16 1020.42
1012.61 1012.71 1013.23 1014.40 1015.61 1016.00 1014.73 1013.28 1012.45 1011.80 1011.24 1010.97 1010.83 1011.25 1011.65 1012.42 1012.54 1013.11 1013.14 1013.45 1013.41 1013.87 1014.49 1014.93 1015.09 1015.35 1015.69 1016.07 1016.51 1016.93 1016.82 1017.80 1017.97 1018.44 1018.89 1019.16 1019.46 1019.73 1019.77 1019.85 1020.11 1020.21 1020.13 1020.23 1020.38 1020.32 1020.51 1020.68 1020.72
1012.51 1012.79 1013.93 1015.10 1015.81 1015.30 1014.27 1012.82 1012.17 1011.68 1011.29 1010.90 1011.29 1011.58 1012.11 1013.03 1013.05 1013.15 1013.27 1013.56 1013.89 1014.32 1014.86 1015.24 1015.46 1015.75 1015.98 1016.31 1016.52 1017.21 1017.30 1017.86 1018.57 1018.86 1019.36 1019.50 1019.88 1020.16 1019.89 1020.27 1020.49 1020.67 1020.73 1020.61 1020.75 1020.63 1020.94 1020.87 1021.03
1012.86 1013.55 1015.00 1015.00 1015.12 1014.17 1013.41 1012.34 1012.07 1011.65 1011.40 1011.31 1011.70 1012.50 1012.96 1013.48 1013.25 1013.52 1013.66 1013.80 1014.30 1014.78 1015.24 1015.49 1015.68 1016.09 1016.34 1016.61 1017.05 1017.41 1018.12 1018.13 1018.83 1019.17 1019.61 1020.04 1020.14 1020.53 1020.35 1020.57 1020.78 1020.81 1021.04 1021.25 1021.03 1021.23 1021.26 1021.28 1021.49
1013.56 1014.49 1015.21 1015.24 1014.49 1013.36 1012.49 1012.15 1011.93 1011.85 1011.96 1012.04 1011.91 1012.93 1013.42 1014.08 1013.99 1013.97 1014.17 1014.39 1014.73 1015.21 1015.71 1015.75 1015.94 1016.23 1016.62 1016.92 1017.31 1018.19 1017.87 1018.62 1018.95 1019.49 1019.87 1020.18 1020.61 1020.70 1020.73 1020.83 1021.18 1021.17 1021.36 1021.62 1021.49 1021.57 1021.71 1021.65 1021.83
1014.27 1015.14 1015.74 1015.37 1014.03 1012.78 1012.02 1011.79 1012.00 1011.84 1012.14 1012.37 1012.72 1013.16 1014.22 1014.38 1014.44 1014.78 1014.86 1015.27 1015.27 1015.84 1016.12 1016.54 1016.73 1016.96 1017.23 1017.12 1017.93 1017.89 1019.44 1018.91 1019.52 1019.96 1020.15 1020.58 1020.86 1020.97 1021.10 1021.27 1021.47 1021.63 1021.59 1021.75 1021.85 1022.01 1021.88 1022.13 1022.25
1014.47 1015.44 1015.49 1014.68 1013.64 1012.66 1011.85 1011.55 1011.88 1011.94 1012.13 1012.67 1012.85 1013.51 1014.53 1014.67 1014.94 1015.30 1015.59 1015.75 1015.84 1016.16 1016.54 1016.96 1017.72 1018.00 1017.91 1017.73 1018.12 1019.01 1019.03 1019.57 1019.81 1020.31 1020.61 1020.87 1021.12 1021.28 1021.32 1021.55 1022.04 1022.11 1022.01 1021.89 1022.06 1022.25 1022.50 1022.52 1022.58
1014.22 1015.12 1015.14 1014.24 1013.26 1012.52 1011.85 1011.80 1011.71 1011.99 1012.76 1013.07 1013.28 1013.84 1014.45 1014.90 1015.35 1015.81 1016.17 1016.27 1016.54 1016.79 1017.31 1017.57 1017.81 1018.93 1019.09 1018.88 1019.06 1019.10 1019.60 1019.87 1020.19 1020.52 1020.93 1021.20 1021.49 1021.60 1021.79 1021.85 1022.28 1022.17 1022.40 1022.16 1022.50 1022.58 1022.80 1023.03 1023.11
1013.85 1014.77 1015.03 1013.70 1012.76 1012.11 1011.84 1011.98 1012.09 1012.49 1012.93 1013.61 1013.73 1014.09 1014.27 1015.15 1015.60 1016.38 1016.75 1017.06 1017.40 1017.99 1017.97 1018.19 1018.96 1019.73 1019.56 1019.25 1019.47 1019.87 1020.25 1020.11 1020.24 1020.76 1021.30 1021.45 1021.76 1021.94 1022.00 1022.18 1022.27 1022.49 1022.46 1022.48 1022.80 1023.04 1023.18 1023.49 1023.57
1013.93 1014.58 1013.79 1012.67 1012.03 1011.75 1011.81 1012.07 1012.14 1012.62 1013.39 1014.07 1014.14 1014.60 1014.99 1015.54 1015.97 1016.59 1017.17 1017.49 1017.81 1018.34 1018.61 1018.31 1019.25 1020.08 1019.79 1019.76 1020.31 1020.41 1020.01 1020.04 1020.61 1020.97 1021.43 1021.78 1021.94 1022.05 1022.39 1022.52 1022.64 1022.72 1022.72 1023.05 1023.43 1023.42 1023.63 1023.78 1024.12
1013.69 1013.48 1012.53 1011.56 1011.36 1011.44 1011.59 1011.88 1011.99 1012.61 1013.44 1013.72 1013.90 1014.55 1015.19 1015.70 1016.50 1016.91 1017.54 1017.90 1018.04 1018.35 1019.01 1019.25 1019.66 1020.09 1019.91 1019.69 1019.73 1019.66 1019.85 1020.54 1021.00 1021.27 1021.79 1022.00 1022.19 1022.45 1022.57 1022.77 1023.03 1023.19 1023.39 1023.69 1023.93 1024.02 1024.20 1024.35 1024.56
1012.92 1012.21 1011.92 1010.93 1011.03 1011.21 1011.39 1011.66 1012.49 1012.91 1013.27 1013.53 1014.17 1014.43 1015.10 1015.88 1016.37 1017.02 1017.67 1018.19 1018.45 1018.55 1018.68 1019.11 1019.37 1019.74 1019.86 1020.10 1020.33 1020.42 1020.37 1020.80 1021.23 1021.28 1021.86 1022.30 1022.59 1022.91 1023.13 1023.26 1023.57 1023.79 1024.03 1024.34 1024.47 1024.66 1024.80 1024.93 1025.08
1012.43 1011.52 1011.16 1010.83 1010.95 1011.26 1011.50 1012.01 1012.92 1013.80 1013.71 1014.10 1014.68 1015.23 1015.54 1015.65 1016.10 1016.83 1017.68 1018.33 1018.56 1018.61 1018.86 1019.14 1019.46 1019.59 1019.81 1020.05 1020.26 1020.41 1020.71 1021.10 1021.25 1021.69 1021.98 1022.33 1022.93 1023.31 1023.53 1023.71 1023.96 1024.17 1024.46 1024.61 1024.98 1025.26 1025.42 1025.29 1025.34
1011.27 1010.98 1010.78 1010.80 1010.89 1011.10 1011.81 1012.64 1013.07 1014.54 1014.72 1015.05 1015.48 1015.76 1015.73 1016.01 1016.28 1017.06 1017.49 1018.11 1018.66 1018.93 1019.04 1019.27 1019.43 1019.65 1019.91 1020.15 1020.40 1020.53 1020.84 1021.14 1021.52 1021.92 1022.09 1022.27 1022.78 1023.25 1023.72 1024.03 1024.24 1024.42 1024.80 1025.11 1025.28 1025.49 1025.50 1025.85 1025.84
1010.80 1010.76 1010.78 1010.90 1010.74 1010.96 1011.25 1012.81 1013.81 1014.50 1015.08 1015.38 1015.87 1016.08 1016.23 1016.24 1016.67 1016.98 1017.44 1018.00 1018.41 1018.79 1019.15 1019.30 1019.53 1019.74 1019.93 1020.21 1020.57 1020.87 1021.18 1021.35 1021.57 1021.92 1022.23 1022.64 1022.91 1023.40 1023.81 1024.11 1024.37 1024.70 1025.12 1025.23 1025.49 1025.66 1025.74 1025.99 1026.18
1010.94 1010.60 1010.65 1010.94 1010.61 1011.00 1011.93 1013.35 1014.33 1014.70 1015.15 1015.79 1016.05 1016.25 1016.37 1016.55 1016.77 1017.04 1017.14 1017.61 1018.11 1018.55 1018.89 1019.16 1019.33 1019.61 1019.85 1020.20 1020.32 1020.80 1021.11 1021.23 1021.68 1022.05 1022.37 1022.64 1023.13 1023.52 1023.86 1024.27 1024.52 1025.00 1025.25 1025.18 1025.71 1025.95 1026.22 1026.46 1026.55
1011.72 1011.29 1011.01 1010.90 1010.62 1011.08 1011.94 1013.12 1014.02 1014.85 1015.18 1015.64 1016.03 1016.21 1016.40 1016.64 1016.81 1017.10 1017.15 1017.44 1017.80 1018.15 1018.66 1019.03 1019.20 1019.58 1019.90 1020.35 1020.64 1020.89 1021.18 1021.54 1021.85 1022.17 1022.37 1022.76 1023.21 1023.68 1023.90 1024.42 1024.71 1025.06 1025.44 1025.60 1025.89 1026.27 1026.25 1026.59 1026.85
1011.94 1011.43 1011.19 1011.00 1010.96 1011.32 1011.76 1012.94 1013.70 1014.41 1014.86 1015.16 1015.64 1015.88 1016.07 1016.20 1015.99 1016.32 1016.89 1017.32 1017.60 1018.00 1018.25 1018.57 1018.97 1019.40 1019.73 1020.38 1021.02 1021.33 1021.68 1021.93 1022.06 1022.28 1022.59 1022.99 1023.35 1023.73 1024.05 1024.57 1024.98 1025.33 1025.65 1025.99 1026.37 1026.70 1026.93 1027.24 1027.49
1011.59 1011.40 1011.07 1010.77 1010.60 1011.28 1012.10 1012.93 1013.37 1014.07 1014.87 1015.24 1015.36 1015.51 1015.62 1015.60 1015.43 1015.97 1016.33 1016.82 1017.27 1017.73 1018.12 1018.34 1018.85 1019.14 1019.63 1020.38 1021.16 1021.65 1021.91 1022.45 1022.63 1022.49 1022.79 1023.13 1023.42 1023.88 1024.46 1024.99 1025.29 1025.52 1025.85 1026.41 1026.43 1026.58 1026.94 1027.49 1027.62
1011.28 1011.15 1011.14 1011.07 1010.98 1011.55 1012.49 1012.84 1013.41 1013.85 1013.98 1014.33 1014.45 1014.90 1014.90 1015.10 1015.38 1015.72 1016.13 1016.50 1016.76 1017.01 1017.47 1017.94 1018.33 1018.80 1019.33 1019.90 1020.45 1021.08 1021.73 1022.31 1022.35 1022.67 1023.07 1023.49 1023.82 1024.18 1024.61 1025.09 1025.48 1025.84 1026.38 1026.51 1026.60 1026.69 1027.23 1027.76 1027.82
1010.81 1010.69 1011.04 1011.50 1011.60 1012.19 1012.70 1013.49 1013.57 1013.57 1013.63 1013.93 1014.12 1014.21 1014.49 1014.60 1014.85 1015.21 1015.69 1016.08 1016.30 1016.48 1016.76 1017.16 1017.81 1018.63 1019.29 1019.73 1020.29 1021.11 1021.68 1022.28 1022.90 1023.22 1023.50 1023.84 1023.98 1024.36 1024.67 1025.07 1025.42 1025.92 1026.26 1026.54 1026.53 1026.56 1026.64 1027.49 1028.31
1010.48 1010.56 1011.07 1011.44 1012.04 1012.92 1013.21 1013.75 1013.61 1013.40 1013.36 1013.39 1013.46 1013.56 1013.48 1013.80 1014.27 1014.63 1014.71 1015.30 1015.92 1016.36 1016.62 1017.05 1017.61 1018.17 1018.84 1019.36 1019.99 1020.45 1021.06 1022.16 1022.36 1022.69 1023.31 1024.02 1024.30 1024.53 1024.70 1024.93 1025.29 1025.66 1026.10 1026.39 1026.22 1026.66 1026.83 1027.17 1028.14
1010.09 1010.40 1011.31 1011.82 1012.45 1013.15 1013.57 1013.77 1013.12 1013.16 1013.23 1012.53 1012.21 1012.36 1012.65 1012.73 1013.19 1013.65 1013.93 1014.09 1014.77 1015.53 1016.16 1016.60 1017.27 1017.95 1018.34 1018.94 1019.50 1020.17 1020.88 1021.43 1021.94 1022.68 1023.38 1024.12 1024.61 1024.74 1024.72 1025.05 1025.35 1025.45 1025.65 1025.74 1025.96 1026.19 1026.83 1027.33 1027.98
1009.92 1010.97 1012.03 1012.93 1013.62 1014.13 1013.80 1013.84 1013.15 1012.62 1011.36 1010.81 1011.23 1011.53 1011.69 1012.21 1012.63 1013.04 1013.61 1014.33 1014.75 1015.13 1015.64 1016.31 1016.82 1017.30 1017.98 1018.63 1019.19 1019.58 1020.24 1021.08 1021.87 1022.80 1023.59 1024.19 1024.44 1024.75 1024.93 1024.99 1025.00 1025.01 1025.25 1025.39 1025.98 1026.10 1026.46 1027.13 1027.55
1010.53 1012.04 1013.49 1014.43 1014.87 1014.82 1014.28 1013.99 1012.09 1010.63 1010.19 1010.36 1010.28 1010.39 1010.42 1010.81 1011.92 1012.54 1013.06 1013.48 1014.12 1014.60 1014.86 1015.52 1016.31 1016.95 1017.61 1018.27 1018.94 1019.18 1019.62 1020.21 1020.90 1021.81 1022.71 1023.88 1024.42 1024.62 1024.68 1024.83 1025.31 1025.57 1025.23 1025.51 1026.01 1026.34 1026.80 1027.17 1027.41
1010.99 1012.05 1013.85 1015.23 1015.98 1015.44 1014.62 1013.47 1011.28 1010.07 1009.96 1009.70 1009.58 1009.56 1010.10 1010.55 1010.92 1011.44 1011.76 1012.36 1013.05 1013.81 1014.47 1015.01 1015.64 1016.29 1016.94 1017.76 1018.27 1018.73 1019.38 1019.98 1020.44 1021.01 1021.65 1022.49 1023.03 1023.54 1023.89 1023.71 1023.61 1024.55 1024.95 1024.64 1025.54 1026.08 1026.29 1026.58 1027.17
1011.31 1012.07 1013.14 1015.08 1016.71 1016.41 1015.02 1013.26 1011.20 1009.90 1009.67 1009.70 1009.78 1009.71 1010.10 1010.38 1010.69 1010.94 1011.36 1011.78 1012.43 1013.19 1013.54 1014.00 1014.81 1015.60 1016.34 1016.95 1017.77 1018.16 1018.65 1019.35 1019.82 1020.72 1021.45 1021.75 1022.39 1022.91 1023.22 1023.54 1023.73 1024.16 1024.52 1024.83 1025.41 1025.77 1026.27 1026.64 1026.96
1010.74 1011.59 1013.39 1014.97 1016.43 1016.67 1015.48 1014.09 1012.05 1010.51 1009.93 1009.82 1010.00 1010.13 1010.13 1010.57 1010.85 1010.87 1011.14 1011.48 1012.01 1012.36 1013.01 1013.88 1014.35 1014.77 1015.42 1016.32 1017.27 1017.86 1018.32 1018.82 1019.50 1020.12 1020.94 1021.50 1021.97 1022.61 1023.09 1023.49 1023.73 1024.23 1024.74 1025.04 1025.44 1025.89 1026.17 1026.53 1026.64
1011.07 1011.70 1013.20 1014.67 1015.92 1016.32 1015.80 1013.85 1011.44 1010.54 1010.01 1010.00 1009.77 1009.81 1010.02 1010.31 1010.65 1010.68 1010.91 1011.13 1011.49 1012.09 1012.76 1013.21 1013.91 1014.71 1015.53 1016.28 1017.12 1017.80 1018.38 1018.81 1019.38 1020.01 1020.62 1021.03 1021.48 1021.96 1022.61 1022.90 1023.55 1024.15 1024.64 1024.82 1025.10 1025.46 1025.79 1026.02 1026.26
1010.29 1011.32 1012.59 1014.57 1016.16 1016.44 1015.75 1013.03 1010.70 1010.20 1010.01 1009.76 1009.50 1009.50 1009.71 1010.19 1010.43 1010.78 1011.09 1011.33 1011.60 1011.94 1012.76 1013.13 1013.91 1014.61 1015.23 1015.97 1016.58 1017.52 1018.16 1018.79 1019.33 1019.81 1020.23 1020.70 1021.21 1021.81 1022.35 1022.68 1023.30 1024.07 1024.44 1024.47 1024.58 1024.95 1025.21 1025.47 1025.76
Wind_Speed
3 2 3 5 5 6 4 7 3 5 0 3 3 3 5 5 3 2 3 5 14 13 13 15 19 20 21 20 20 22 23 21 21 20 19 19 18 17 18 20 20 20 21 22 22 22 22 21 20
3 2 5 3 6 2 6 5 4 4 3 1 4 3 5 5 4 4 1 8 13 12 9 10 18 20 20 20 20 19 22 20 20 19 18 18 18 17 17 18 19 20 21 22 21 21 20 19 17
3 4 5 5 4 5 5 5 2 1 2 2 3 7 4 4 3 3 7 11 11 10 8 10 17 18 19 20 20 19 21 20 18 18 18 18 18 17 18 16 17 18 20 21 20 20 18 17 16
2 5 5 5 6 6 5 5 2 2 4 6 1 7 4 5 2 4 11 12 10 8 5 11 17 18 19 19 19 19 18 20 17 17 17 16 18 17 15 14 15 17 19 18 19 18 16 16 17
5 3 3 1 4 5 4 3 3 3 2 4 1 3 5 4 10 11 12 11 11 9 5 10 14 18 17 18 19 16 19 17 17 16 17 16 16 15 13 13 11 12 13 15 16 14 14 16 16
4 4 5 3 5 4 3 1 1 2 3 2 6 3 4 9 11 10 14 13 15 14 12 11 8 14 15 17 16 17 12 16 14 15 16 16 14 12 12 11 9 9 10 12 13 11 13 14 13
6 4 3 4 4 5 4 2 5 4 4 4 2 5 3 7 11 13 13 13 14 15 15 14 14 14 10 14 13 12 14 12 14 14 15 13 11 10 10 9 8 8 10 11 14 13 12 13 13
5 5 2 4 1 4 2 1 2 2 4 3 3 5 6 6 12 13 12 15 16 14 14 16 16 9 7 6 11 13 12 12 13 13 12 10 9 9 9 9 8 9 9 12 12 15 13 13 13
3 5 2 5 1 3 1 1 2 4 7 4 3 2 11 14 14 15 13 12 12 11 15 16 14 6 5 7 7 8 10 12 12 11 10 7 4 5 6 7 9 8 9 12 12 13 14 14 14
4 3 7 5 2 2 2 1 3 4 4 6 8 10 12 12 11 13 11 9 12 14 15 16 15 8 9 2 4 5 6 6 5 5 6 4 5 4 5 6 8 11 14 14 14 14 14 11 5
3 5 5 7 6 2 3 2 2 8 4 4 15 11 11 11 9 9 14 10 9 10 9 11 13 9 7 5 1 2 3 3 3 5 5 4 3 3 3 3 4 5 9 4 6 6 5 7 5
3 8 5 7 4 4 3 6 4 4 1 12 12 13 11 10 12 10 13 11 11 12 17 15 12 9 4 3 3 3 3 3 3 4 5 3 3 4 4 4 4 5 4 6 5 4 5 6 7
3 6 4 5 7 3 4 7 5 3 11 13 12 12 11 13 13 12 12 12 12 11 10 9 5 4 4 4 4 3 3 3 3 3 4 4 4 4 4 4 4 4 4 4 5 5 4 5 6
6 4 5 4 5 5 7 5 4 2 11 14 13 13 10 8 10 6 12 12 12 9 8 6 5 4 5 4 4 3 3 2 3 3 4 6 4 5 4 4 4 5 4 4 4 4 4 4 4
4 3 5 2 4 3 7 5 5 13 9 11 8 7 6 3 5 7 10 8 9 5 5 7 6 6 6 6 5 4 4 4 4 4 5 6 6 6 5 5 4 4 4 6 5 4 4 4 4
5 3 4 2 3 4 2 2 5 13 13 11 8 8 8 5 5 5 6 7 7 7 8 7 7 7 6 6 5 4 4 4 4 4 4 7 6 6 6 5 4 4 4 4 4 3 4 4 4
6 1 1 1 6 3 4 4 8 10 11 10 11 10 8 5 7 7 7 7 7 8 7 7 6 7 7 5 4 4 5 4 4 4 4 6 6 6 6 4 5 5 4 4 2 3 2 3 3
3 1 1 2 4 2 3 4 7 14 12 11 9 11 12 10 15 9 9 8 8 7 7 7 6 7 7 5 4 4 4 3 3 4 4 6 5 6 6 5 5 4 4 4 3 3 4 3 2
1 2 1 2 3 6 5 5 10 9 6 7 8 8 10 14 10 8 9 8 7 7 7 8 8 7 7 4 4 3 4 2 2 3 5 6 5 6 6 4 5 4 5 3 3 3 4 3 2
5 3 2 2 3 1 4 4 2 7 10 10 13 11 13 10 7 8 8 9 10 10 9 8 9 11 9 7 3 4 4 2 3 3 4 5 6 6 6 6 5 6 4 4 3 2 3 3 3
3 1 2 3 2 4 6 5 2 4 2 6 7 8 9 13 12 11 11 10 9 11 12 12 11 11 9 7 5 4 4 4 3 2 3 3 6 6 7 7 6 5 4 4 3 3 5 4 2
1 3 0 4 3 3 1 4 5 6 8 7 10 10 13 11 10 12 15 12 10 10 9 9 10 13 9 10 7 11 8 7 4 4 4 4 6 6 6 7 6 6 4 5 4 2 3 4 3
4 5 2 3 3 4 1 5 7 2 9 15 14 16 15 15 14 16 17 17 14 11 11 10 9 10 10 12 10 8 5 4 4 4 8 6 5 5 6 6 6 6 4 5 5 6 5 3 3
4 3 6 5 3 3 3 5 6 6 16 17 11 12 15 13 11 13 10 9 11 8 9 9 11 12 9 12 10 12 12 9 8 5 5 4 3 4 5 6 6 6 6 5 4 4 5 4 4
7 6 4 4 4 5 1 2 10 8 10 8 10 14 16 16 13 11 14 14 12 15 14 11 12 12 8 11 11 11 11 12 13 12 9 8 5 4 6 5 4 1 4 5 5 4 4 4 3
4 8 7 3 2 3 2 5 7 5 3 8 9 9 9 11 13 17 18 16 16 15 14 13 14 12 12 12 12 10 9 7 8 12 10 9 8 7 7 8 8 7 6 6 4 4 4 5 4
5 3 5 8 3 3 4 7 10 4 5 4 4 4 8 8 9 13 13 15 14 13 17 17 15 14 11 13 9 10 12 12 11 10 9 7 7 7 8 6 7 7 6 6 6 3 3 4 4
5 8 4 3 4 3 4 5 6 8 6 5 6 7 7 5 8 8 9 11 12 13 14 11 13 16 12 11 9 8 9 10 9 10 10 10 8 8 9 7 6 5 4 5 5 4 4 5 4
2 2 6 5 5 5 1 7 8 7 5 5 6 7 7 6 7 7 8 8 10 8 9 12 11 9 8 8 7 7 7 8 9 10 10 10 11 11 8 7 6 6 5 5 5 6 6 6 5
4 6 6 6 5 1 3 8 5 8 7 6 8 7 4 6 7 6 5 5 6 9 4 7 6 8 9 9 10 9 7 9 10 9 11 11 11 8 6 7 7 5 6 6 7 7 6 7 7
Wind_Direction
104 90 80 43 56 64 267 261 249 270 34 25 10 88 103 43 105 217 85 111 130 140 139 142 141 135 130 126 125 124 123 120 122 118 121 121 114 114 110 105 103 98 94 89 83 81 85 88 94
127 92 45 92 86 75 264 266 281 295 352 297 105 102 54 68 57 80 53 122 132 132 130 138 136 131 129 126 122 121 117 122 117 118 118 117 115 112 104 99 97 97 95 91 85 83 89 87 88
130 57 86 94 122 196 219 229 270 321 332 349 91 53 59 18 54 74 107 126 121 121 121 141 130 128 128 128 126 125 118 118 118 118 122 117 117 113 102 100 96 96 97 94 92 86 87 90 92
87 13 37 100 224 253 226 316 314 297 349 31 98 71 83 359 344 85 103 101 83 112 135 137 136 136 132 126 122 122 132 116 121 120 122 121 116 110 101 97 96 98 100 99 92 90 82 85 95
39 48 66 257 258 261 238 306 306 93 81 352 31 83 67 60 85 78 74 79 88 68 43 153 149 135 130 120 119 127 109 125 122 124 121 119 118 115 104 100 93 88 93 93 94 90 87 90 101
41 90 55 297 251 253 261 201 142 82 113 146 71 95 64 116 89 84 83 83 83 76 63 54 104 106 117 109 118 102 128 106 113 118 118 119 122 118 112 103 96 87 78 80 82 95 85 92 104
112 80 202 242 281 308 243 139 145 161 135 54 103 72 89 101 97 92 90 88 82 85 83 91 65 44 49 82 95 111 94 113 112 117 123 126 126 119 109 102 94 81 73 72 77 86 87 80 87
108 94 250 264 274 282 314 303 142 111 76 100 19 153 152 124 106 92 89 87 90 89 92 96 92 71 338 62 80 88 101 103 120 117 119 122 106 104 106 95 94 80 86 77 80 93 93 84 78
128 62 282 262 178 260 358 225 29 52 87 59 32 26 117 125 114 106 95 97 100 96 104 99 104 108 31 12 69 103 138 127 105 106 111 92 111 112 95 110 96 98 90 89 89 89 89 81 74
87 110 228 219 232 236 192 210 128 78 98 69 90 97 118 121 120 120 116 118 125 130 127 126 132 153 141 233 145 163 123 76 103 122 130 121 116 111 92 73 88 93 92 83 79 75 80 77 68
139 217 218 258 228 195 176 146 93 142 95 188 148 136 131 122 126 112 127 129 131 141 135 136 139 172 168 176 154 61 90 113 121 126 130 128 99 87 83 83 74 73 73 65 59 63 54 65 66
185 254 219 277 160 156 167 150 73 33 102 144 147 144 128 133 131 133 130 147 152 162 160 159 165 186 186 143 148 136 116 136 163 148 144 129 106 97 84 79 82 74 68 77 72 66 63 63 65
218 256 242 273 134 89 95 43 113 65 116 130 140 134 143 167 148 157 140 158 167 180 164 179 175 186 163 134 129 129 152 175 156 149 151 130 117 108 101 94 85 81 80 80 71 74 76 70 74
213 256 281 109 156 145 116 142 70 115 125 142 155 162 193 149 158 130 160 164 184 191 192 178 171 195 158 142 152 159 165 162 163 164 125 117 127 119 113 110 96 80 83 90 97 103 86 66 82
253 275 112 48 181 147 124 23 71 146 139 151 162 173 194 258 137 168 163 160 172 179 179 180 175 192 167 165 172 158 171 164 141 126 125 124 120 126 123 113 106 113 114 114 92 75 70 81 68
352 37 37 175 173 86 55 159 138 158 154 165 180 190 204 207 173 189 174 172 174 173 186 177 187 179 166 170 160 157 162 140 133 128 129 127 131 137 123 115 121 138 115 101 98 110 80 83 84
1 172 17 98 218 112 221 127 166 169 175 175 188 201 215 205 205 197 184 184 179 189 179 177 175 168 158 149 137 150 133 129 137 127 129 140 137 139 125 131 125 121 110 94 112 61 96 73 77
288 19 116 211 217 94 218 109 167 173 191 188 186 198 211 214 220 195 182 181 175 187 182 162 166 156 147 124 101 72 76 95 113 138 143 146 141 138 123 114 117 116 103 79 66 94 46 53 50
330 285 264 285 246 124 221 160 197 177 180 188 211 205 211 219 218 195 183 178 173 178 179 165 156 156 146 137 133 125 147 155 152 137 134 137 133 122 115 113 109 99 88 124 150 125 111 60 66
211 194 275 216 344 94 141 222 160 186 204 206 197 205 213 219 193 187 187 183 186 180 182 167 173 164 171 168 143 144 154 126 97 99 102 117 124 124 122 117 103 102 118 98 89 124 116 65 20
219 97 73 246 38 52 102 348 205 228 252 190 228 219 209 208 201 205 196 197 192 188 186 184 178 173 172 151 113 83 75 66 86 114 110 112 122 126 121 120 116 121 128 137 151 138 114 126 28
26 149 136 277 108 191 154 250 259 225 230 225 213 209 217 207 203 204 192 196 198 202 191 189 180 175 173 160 157 166 165 165 192 153 124 121 124 122 123 119 127 128 129 122 113 110 107 111 121
237 77 75 11 98 94 268 79 266 166 238 240 224 216 216 214 200 198 205 202 190 185 193 184 176 182 176 178 178 171 162 144 128 113 125 124 121 125 120 125 131 131 135 124 112 116 103 93 134
103 61 44 53 51 44 298 122 280 194 218 235 227 224 218 206 204 209 201 183 197 185 176 180 177 190 178 180 181 185 173 159 141 131 136 137 141 137 140 146 141 138 125 124 131 131 108 126 127
74 65 339 347 13 216 349 61 239 255 248 243 237 221 214 205 186 187 187 189 185 191 192 182 183 191 178 185 191 198 177 165 168 163 161 161 167 173 164 138 116 125 148 135 143 111 113 161 179
182 154 154 229 193 275 313 238 257 217 275 260 254 242 203 212 194 194 201 194 196 194 196 193 190 194 190 195 203 185 180 182 175 174 166 173 171 165 167 167 159 163 176 150 142 144 182 183 198
207 118 163 106 13 48 268 297 303 319 338 320 310 264 217 207 199 200 200 196 193 190 198 198 193 198 191 197 180 179 179 180 178 180 179 159 153 163 169 154 155 166 166 152 179 179 188 189 204
215 152 83 15 160 235 268 275 242 308 314 305 314 269 271 199 201 203 198 190 191 198 201 194 197 200 193 181 187 190 187 177 170 163 165 165 159 148 162 168 155 153 164 171 156 191 203 194 214
152 129 63 115 131 171 210 261 219 236 250 279 265 244 239 231 218 203 202 197 195 190 192 195 193 176 165 166 176 179 180 176 168 172 165 166 162 170 169 162 152 166 179 177 180 198 198 203 216
165 175 140 131 212 136 161 267 244 237 259 290 290 265 260 213 218 207 205 200 193 201 165 190 158 166 180 172 161 173 154 158 158 163 171 170 170 169 157 155 162 176 180 191 196 201 200 204 210